SCP
0 0 0 0 0 0 0 0 0 0 0 0 0 0 0 0 0 0 0 1 2 2 1 1 1 1 1 0 0 0 0 0 0 0 0 0 0 0 0 0 0 0 0 0 0 0 0 0 0
0 0 0 0 0 0 0 0 0 0 0 0 0 0 0 0 0 0 1 1 2 2 1 1 1 1 1 1 0 0 0 0 0 0 0 0 0 0 0 0 0 0 0 0 0 0 0 0 0
0 0 0 0 0 0 0 0 0 0 0 0 0 0 0 0 0 0 1 1 2 1 1 1 1 1 1 1 1 0 0 0 0 0 0 0 0 0 0 0 0 0 0 0 0 0 0 0 0
0 0 0 0 0 0 0 0 0 0 0 0 0 0 0 0 0 1 1 1 1 1 1 1 1 1 1 1 1 1 1 0 0 0 0 0 0 0 0 0 0 0 0 0 0 0 0 0 0
0 0 0 0 0 0 0 0 0 0 0 0 0 0 0 0 1 1 1 1 1 1 1 1 1 1 1 1 1 1 1 1 1 1 0 0 0 0 0 0 0 0 0 0 0 0 0 0 0
0 0 0 0 0 0 0 0 0 0 0 0 0 0 1 1 1 1 1 1 1 1 1 1 1 1 1 1 1 1 1 1 1 1 1 1 0 0 0 0 0 0 0 0 0 0 0 0 0
0 0 0 0 0 0 0 0 0 0 0 0 0 0 1 1 1 1 1 1 1 1 1 1 1 1 1 1 1 1 1 1 1 1 1 1 0 0 0 0 0 0 0 0 0 0 0 0 0
0 0 0 0 0 0 0 0 0 0 0 0 0 0 1 1 1 0 0 1 1 1 1 1 1 1 1 1 1 1 1 1 1 1 1 0 0 0 0 0 0 0 0 0 0 0 0 0 0
0 0 0 0 0 0 0 0 0 0 0 0 0 0 1 1 0 0 0 1 1 1 1 1 0 0 0 0 1 1 1 1 1 0 0 0 0 0 0 0 0 0 0 0 0 0 0 0 0
0 0 0 0 0 0 0 0 0 0 0 0 0 0 0 0 0 0 1 1 1 1 1 1 0 0 0 0 0 0 0 0 0 0 0 0 0 0 0 0 0 0 0 0 0 0 0 0 0
0 0 0 0 0 0 0 0 0 0 0 0 0 0 0 0 0 1 1 1 1 1 1 1 1 0 0 0 0 0 0 0 0 0 0 0 0 0 0 0 0 0 0 0 0 0 0 0 0
0 0 0 0 0 0 0 0 0 0 0 0 0 0 0 0 0 1 1 1 1 1 1 1 1 1 1 1 1 0 0 0 0 0 0 0 0 0 0 0 0 0 0 0 0 0 0 0 0
0 0 0 0 0 0 0 0 0 0 0 0 0 0 0 0 1 1 1 1 1 1 1 1 1 1 1 1 1 1 1 1 0 1 0 0 0 0 0 1 1 0 0 0 0 0 0 0 0
0 0 0 0 0 0 0 0 0 0 0 0 0 0 1 1 1 1 1 2 2 2 1 1 2 2 2 2 1 1 1 1 1 1 1 1 1 1 1 1 1 1 1 1 1 1 1 1 1
0 0 0 0 0 0 0 0 0 0 0 0 0 1 1 1 1 1 2 2 2 2 2 2 2 2 2 2 1 1 1 1 1 1 1 1 1 1 1 1 1 1 1 1 1 1 1 1 1
-0 0 0 0 0 0 0 0 0 0 0 0 1 1 1 1 1 2 2 3 3 3 3 3 2 2 3 2 2 1 1 1 1 1 1 1 1 1 1 1 1 1 1 1 1 1 1 1 1
0 0 0 0 0 0 0 0 0 0 0 1 1 1 1 1 2 2 3 3 4 4 4 3 3 3 3 2 2 2 2 2 2 2 2 2 2 2 2 2 1 1 1 1 1 1 1 1 1
0 0 0 0 0 0 0 0 0 1 1 1 1 1 1 2 3 3 3 4 4 5 5 4 3 3 3 2 2 2 2 2 2 2 2 2 2 2 2 2 2 2 2 2 1 1 1 1 1
0 0 0 0 0 0 0 0 1 1 1 1 2 2 2 3 3 3 3 4 4 5 5 4 4 3 3 2 2 2 2 2 2 2 2 2 2 2 2 2 2 2 2 2 1 1 1 1 1
0 0 0 0 0 0 0 1 1 1 1 2 2 3 3 3 3 3 3 3 3 4 4 3 3 3 3 2 2 2 2 2 2 2 2 1 1 1 1 1 2 2 2 1 1 1 1 1 1
0 0 0 0 0 0 0 0 1 1 1 2 2 2 2 2 2 2 3 3 3 3 3 2 3 2 2 2 2 2 2 2 2 1 1 1 1 1 1 1 1 1 1 1 1 1 1 0 0
0 0 0 0 0 0 0 0 1 1 1 1 2 2 2 2 2 2 2 2 2 2 2 2 2 2 2 2 2 2 2 2 1 1 1 1 0 0 0 0 0 1 1 0 0 0 0 0 0
0 0 0 0 0 0 0 0 1 1 1 1 1 1 1 1 1 1 1 1 1 1 2 2 2 2 2 2 2 2 2 1 1 1 0 0 0 0 0 0 0 0 0 0 0 0 0 0 0
0 0 0 0 0 0 0 0 1 1 1 1 1 1 1 1 0 0 1 1 1 1 1 2 1 1 1 1 1 1 1 1 1 0 0 0 0 0 0 0 0 0 0 0 0 0 0 0 0
0 0 0 0 0 0 0 0 1 1 1 1 1 0 0 0 0 0 0 0 1 1 1 1 1 1 1 1 1 1 1 1 0 0 0 0 0 0 0 0 0 0 0 0 0 0 0 0 0
0 0 0 0 0 0 0 1 1 1 1 1 1 0 0 0 0 0 0 0 0 0 1 1 1 1 1 1 0 0 0 0 0 0 0 0 0 0 0 0 0 0 0 0 0 0 0 0 0
0 0 0 0 0 0 0 1 1 1 1 1 0 0 0 0 0 0 0 0 0 0 0 0 0 0 0 0 0 0 0 0 0 0 0 0 0 0 0 0 0 0 0 0 0 0 0 0 0
0 0 0 0 0 0 0 0 1 1 1 0 0 0 0 0 0 0 0 0 0 0 0 0 0 0 0 0 0 0 0 0 0 0 0 0 0 0 0 0 0 0 0 0 0 0 0 0 0
0 0 0 0 0 0 0 0 0 0 0 0 0 0 0 0 0 0 0 0 0 0 0 0 0 0 0 0 0 0 0 0 0 0 0 0 0 0 0 0 0 0 0 0 0 0 0 0 0
0 0 0 0 0 0 0 0 0 0 0 0 0 0 0 0 0 0 0 0 0 0 0 0 0 0 0 0 0 0 0 0 0 0 0 0 0 0 0 0 0 0 0 0 0 0 0 0 0
Wind_Speed
14 17 14 11 10 11 16 9 2 6 4 2 6 6 9 10 9 8 6 9 22 22 19 18 18 18 18 17 16 16 15 14 13 12 12 11 11 11 11 11 11 10 10 10 10 10 10 9 9
12 16 13 10 11 14 11 4 3 5 2 2 5 4 8 13 11 10 10 16 23 20 17 17 18 17 18 17 16 16 16 15 14 13 12 12 11 11 11 11 10 10 10 10 10 9 9 9 8
14 16 11 11 16 18 12 2 4 8 4 3 4 4 7 9 10 10 14 19 21 18 16 17 18 17 17 17 16 16 16 15 14 13 12 12 11 10 10 10 10 9 9 9 9 9 8 7 7
11 11 11 13 20 21 15 5 3 10 7 2 3 6 8 8 9 14 18 20 20 18 18 17 17 18 17 17 16 16 15 15 14 13 12 11 11 10 10 10 9 9 8 8 8 8 7 6 5
11 10 14 18 23 22 14 7 8 8 8 4 3 9 10 8 15 18 17 19 19 19 18 17 16 17 17 17 16 16 15 14 14 13 12 11 10 10 10 9 9 9 8 8 7 7 6 5 3
10 11 15 19 22 22 16 9 11 12 10 6 3 8 8 10 14 16 18 18 18 19 19 16 17 18 17 17 16 15 15 14 13 12 12 11 10 9 9 9 9 8 8 7 7 6 5 4 2
12 13 18 22 21 20 16 12 11 11 9 4 0 4 9 11 11 16 17 17 18 20 19 16 15 15 16 16 16 15 14 14 13 12 12 11 10 10 10 9 9 8 7 7 6 5 4 3 3
13 13 20 21 22 20 16 12 13 11 9 2 1 2 9 8 10 13 16 16 18 19 18 17 16 15 14 14 15 16 15 14 13 13 12 12 11 10 10 10 8 8 7 7 6 5 5 4 4
16 15 18 20 19 18 15 12 12 9 8 6 3 8 12 11 11 13 14 15 16 18 17 17 17 15 14 14 14 14 14 13 13 12 12 11 9 9 8 9 11 9 8 7 7 6 6 6 8
14 14 19 20 19 17 12 10 11 10 11 9 6 12 15 15 15 15 15 16 17 18 18 17 17 16 15 13 12 9 10 10 9 9 10 7 5 5 7 11 12 11 9 8 8 8 8 8 6
16 18 18 19 18 15 12 10 9 12 11 10 8 10 15 16 15 15 15 15 16 17 15 17 17 14 14 11 10 7 6 8 8 9 9 6 4 4 6 6 7 7 8 7 7 8 7 7 6
18 17 17 17 16 14 12 11 11 13 10 5 6 7 9 10 11 13 15 15 14 17 16 17 17 13 11 11 9 8 7 7 6 7 9 6 3 3 4 4 6 6 5 5 5 5 7 7 5
16 16 16 15 14 14 13 14 13 12 10 7 3 5 7 9 10 12 12 14 13 14 14 15 15 12 9 8 8 8 7 8 7 7 7 5 4 3 2 2 2 3 3 4 4 4 3 3 3
14 14 14 14 15 14 14 14 14 13 11 9 6 7 7 9 10 9 11 12 13 11 12 13 15 12 10 7 5 5 6 6 6 5 6 6 4 3 2 1 1 1 1 0 1 1 1 1 2
13 14 15 15 15 15 14 15 16 14 12 11 9 8 6 6 5 6 8 11 14 12 10 11 12 12 10 9 7 6 6 6 5 5 5 5 4 3 2 1 1 1 1 1 1 2 2 2 2
13 14 16 18 18 16 15 14 13 13 13 11 8 6 5 4 3 6 7 7 11 13 11 10 11 12 9 7 5 4 5 5 5 5 4 5 3 3 2 1 0 0 1 1 0 1 2 2 2
15 16 17 17 17 14 14 12 10 9 10 8 7 6 6 3 3 5 9 6 8 9 10 9 9 11 10 8 5 4 3 4 4 4 4 4 3 3 2 1 1 1 1 1 2 0 1 2 2
12 13 15 13 10 11 11 8 3 2 4 5 4 4 4 5 7 8 7 6 9 8 8 8 8 9 8 6 5 3 4 4 3 4 4 4 3 3 2 1 1 1 1 1 1 1 0 1 2
15 14 11 8 5 8 7 5 1 2 3 4 4 6 8 9 10 9 9 8 8 8 7 6 7 7 6 5 6 5 4 4 3 4 5 5 4 4 3 1 2 1 1 1 1 1 1 1 2
13 13 9 3 3 5 6 4 3 4 7 10 11 11 10 10 11 11 11 7 6 7 6 5 5 6 5 4 4 4 5 4 5 5 6 6 6 5 3 3 3 2 2 3 3 2 1 1 2
12 11 9 6 5 6 6 6 7 6 9 12 12 12 12 12 12 12 12 11 10 6 5 3 4 4 4 3 3 5 5 4 4 5 5 7 8 8 7 7 5 5 5 4 4 4 3 1 2
11 11 10 10 8 8 11 8 9 9 9 10 11 12 12 12 12 12 12 11 11 9 7 6 5 4 4 4 4 6 5 5 5 6 6 9 10 10 9 8 7 7 6 6 6 6 4 3 2
11 9 9 10 10 11 12 9 8 11 10 9 11 12 12 12 12 12 12 11 11 10 9 8 8 7 6 5 5 6 7 7 7 8 10 9 9 10 10 10 9 9 8 8 8 8 7 5 4
10 9 9 11 12 15 14 13 8 8 11 11 10 11 12 12 13 12 12 11 11 12 11 9 10 10 9 9 8 8 11 11 10 10 10 8 7 9 11 11 10 9 8 9 8 8 10 7 7
10 9 7 10 12 13 14 10 4 11 14 14 13 12 11 12 12 12 13 13 13 13 12 11 12 12 12 12 11 11 12 12 11 10 10 9 7 8 10 10 9 9 8 8 8 9 8 8 7
10 12 9 6 6 8 6 3 9 16 17 16 14 13 13 13 12 13 12 12 12 13 12 12 13 13 13 13 13 13 12 10 10 11 10 9 8 8 9 10 9 9 9 8 7 7 7 6 6
10 11 9 8 8 7 2 5 9 13 15 15 14 14 13 12 12 12 12 12 12 12 13 13 13 14 14 14 14 14 13 13 13 11 10 9 8 8 9 9 9 8 8 7 6 6 6 5 5
10 8 4 7 5 5 5 6 7 14 13 13 13 14 13 12 11 12 11 12 11 12 12 14 14 15 14 13 12 12 13 13 12 11 11 10 9 9 9 8 8 7 7 6 6 5 5 5 4
6 7 6 6 4 4 4 1 1 13 13 13 13 13 12 12 11 11 11 11 11 12 12 13 13 14 13 13 13 13 12 12 12 11 10 9 8 7 7 6 6 6 6 5 5 5 5 5 5
6 6 6 6 6 5 1 2 3 14 15 15 14 13 13 12 12 12 12 11 11 12 12 12 12 13 12 12 12 12 12 11 11 10 9 7 6 6 6 5 5 6 6 5 6 6 6 6 5
Wind_Direction
295 282 273 271 260 248 256 263 214 262 277 65 64 64 81 69 76 116 185 130 116 124 131 133 136 141 144 146 145 144 141 139 137 134 130 124 120 114 110 106 104 103 103 104 103 102 100 97 96
291 287 280 262 260 259 260 280 257 241 235 129 118 116 95 81 93 118 130 117 119 127 137 134 136 141 144 145 145 144 145 144 142 141 137 131 127 121 116 113 110 108 108 108 107 105 103 102 101
273 270 270 261 253 260 267 295 321 298 237 172 128 107 83 98 101 114 120 123 123 131 134 130 138 140 143 144 144 146 148 147 147 145 142 137 132 126 122 119 116 115 113 112 111 108 107 105 104
266 249 244 251 255 258 259 206 203 285 276 173 136 104 75 78 103 118 128 128 128 134 132 134 138 139 142 144 145 147 149 149 149 148 145 140 137 132 129 126 122 121 120 118 116 113 111 109 105
243 251 245 247 253 260 258 180 179 231 263 238 163 106 93 95 105 120 133 133 137 138 132 137 136 138 141 144 146 147 148 148 149 148 145 142 139 137 134 131 129 128 128 126 123 122 121 119 114
244 235 243 248 252 254 252 224 201 223 224 226 180 124 118 116 119 133 138 142 143 136 133 135 136 138 141 144 145 146 147 148 148 147 144 142 140 140 138 137 136 136 136 135 133 133 133 136 146
247 246 244 249 256 258 251 226 223 233 247 226 3 114 120 123 132 140 142 147 142 135 135 143 141 140 141 143 144 146 146 146 145 145 144 144 144 146 146 144 144 144 144 146 148 152 156 168 197
244 256 257 255 257 261 263 252 229 224 241 246 137 104 113 120 137 144 147 149 142 138 142 150 149 146 146 146 147 147 146 146 147 148 150 150 152 156 156 154 152 154 158 163 167 174 185 200 217
244 249 255 257 259 263 259 260 260 242 240 235 166 109 126 143 157 160 154 150 146 144 147 153 153 154 156 152 149 149 150 150 151 155 158 160 171 171 172 170 156 165 173 180 187 197 209 219 226
235 244 251 259 269 277 275 266 255 240 227 227 188 137 141 159 171 172 163 158 154 151 155 156 154 159 162 155 148 158 162 159 172 167 170 188 192 181 175 152 162 173 183 193 203 213 222 232 230
234 244 260 269 276 285 285 282 272 256 235 228 207 167 163 168 172 175 167 165 160 157 158 156 156 163 162 147 156 164 169 163 188 173 178 197 197 181 152 154 165 180 191 204 202 213 227 226 231
239 248 260 271 283 288 286 277 265 263 262 233 204 174 163 169 178 182 169 164 163 160 163 157 155 161 158 150 161 163 165 166 183 171 183 189 197 199 169 173 175 185 196 204 193 216 222 232 238
247 247 256 268 274 278 281 276 269 265 272 267 220 188 179 192 194 185 166 158 161 166 162 155 155 153 145 141 161 167 167 170 177 170 182 177 183 204 176 177 172 202 194 189 212 225 230 238 257
268 265 258 257 257 256 257 261 263 258 256 254 240 223 203 207 205 176 157 152 161 170 161 152 153 147 141 143 155 152 156 154 163 161 172 176 176 173 169 175 162 261 290 190 195 279 324 307 308
269 271 267 259 252 243 243 247 246 248 243 239 233 226 220 217 201 163 157 157 157 159 156 147 150 148 147 151 163 152 155 156 156 153 159 164 173 155 158 172 167 252 307 357 8 333 334 295 282
260 255 254 247 236 229 229 244 243 226 225 227 224 215 219 231 201 131 126 133 140 150 144 146 155 149 146 150 160 154 158 149 144 142 149 157 167 147 148 158 147 7 339 25 336 318 327 316 316
244 243 247 245 218 211 214 238 247 218 194 205 208 200 195 163 67 94 113 114 119 125 133 143 141 146 153 155 158 158 136 126 129 128 131 140 147 135 138 140 94 62 27 11 295 348 303 302 306
250 242 242 242 193 200 203 223 248 134 171 185 199 181 143 97 65 59 82 102 100 110 123 131 133 141 148 149 151 148 133 116 110 105 96 106 111 105 109 115 71 41 47 8 331 338 34 347 317
280 284 270 251 180 192 194 206 145 89 95 92 68 67 76 69 61 59 57 67 92 97 105 119 132 138 147 156 165 162 151 133 104 84 82 83 74 72 77 69 78 65 72 38 351 336 4 10 342
271 271 269 248 174 198 189 162 115 79 72 70 63 58 60 55 55 53 59 52 73 93 106 113 122 138 151 159 158 148 135 114 101 87 72 64 58 47 58 47 48 48 50 51 36 28 70 36 11
262 262 258 245 209 217 199 185 172 127 95 83 77 68 54 56 51 47 49 43 42 52 75 115 130 130 134 135 136 126 111 112 105 89 71 58 55 48 42 44 47 44 47 50 41 30 40 52 46
257 257 260 251 230 223 216 214 189 157 123 98 85 76 65 55 50 45 42 36 35 33 45 54 71 95 114 126 132 135 135 125 103 89 78 64 56 52 49 48 49 50 51 50 44 40 39 42 40
265 270 264 258 249 248 231 228 189 158 145 112 89 77 69 61 56 47 43 41 37 33 38 45 56 63 70 77 96 112 106 97 93 90 83 72 62 56 57 58 55 53 53 51 50 49 45 44 40
266 260 255 255 249 244 236 239 187 168 149 123 99 81 70 62 57 49 43 43 43 41 40 45 57 58 60 69 77 93 100 101 98 91 87 77 70 61 58 60 60 58 57 53 52 55 54 47 46
251 247 239 235 233 241 233 223 120 121 128 125 112 92 79 68 61 51 44 42 44 45 46 50 56 58 59 65 68 81 90 93 90 91 89 86 77 69 61 62 60 59 59 57 54 57 53 47 48
246 246 246 257 271 278 266 150 117 113 113 113 110 101 87 75 68 61 54 49 49 50 52 60 64 63 63 66 68 70 75 80 82 82 86 83 80 77 72 68 65 61 59 59 56 57 53 44 41
248 247 263 268 271 274 261 98 120 123 122 121 114 101 89 80 74 69 62 58 56 55 57 65 71 71 68 69 72 72 75 81 85 83 82 82 81 82 74 72 69 62 59 57 60 62 53 47 39
270 261 265 270 271 270 240 190 172 152 137 126 117 106 97 89 80 74 69 67 65 65 68 70 71 73 73 73 75 79 76 77 81 83 82 81 79 77 77 72 70 65 58 52 52 58 48 49 36
279 271 274 270 269 274 264 259 49 154 139 127 114 107 103 96 88 82 77 73 72 71 70 72 74 76 76 77 79 80 79 80 80 79 80 80 79 79 79 77 76 71 62 53 50 55 51 42 33
284 294 292 288 287 275 274 95 94 126 127 121 115 109 104 99 94 89 84 79 76 74 74 75 76 78 79 80 81 81 82 81 82 83 82 83 84 83 83 79 74 70 60 44 40 40 41 35 30